Find STARLINK-37927

NORAD ID: 799500986 Int'l Des: 2026-135L Constellation: starlink operational

Current View

Loading 3D Globe...

About STARLINK-37927

STARLINK-37927 (NORAD 799500986) is a starlink constellation satellite launched Jun 7, 2026

About STARLINK-37927

Description loading...

Upcoming Passes

Passes for default location (London). Set your location on the main map for personalized predictions.

Altitude History

Loading altitude history...

Two-Line Element Set

1 99999C 2026135L 26166.87270832 .00516960 00000-0 808460-4 0 1665
2 99999 97.2802 193.6585 0010379 265.2953 72.2554 16.03648920 19
Epoch: Jun 15, 2026 • Age: 8 hours